Wind_Speed
10 9 9 9 8 6 5 5 4 3 4 4 4 4 4 5 5 5 4 4 3 2 3 4 5 5 4 5 5 6 6 5 6 6 6 6 5 5 5 4 4 4 4 5
11 11 10 10 9 7 6 6 6 5 5 5 4 4 5 5 5 4 4 4 4 3 4 5 5 5 5 5 5 5 6 6 6 7 8 7 7 6 6 5 6 6 6 5
11 11 12 11 10 9 8 8 8 9 8 7 7 7 6 6 6 5 4 4 4 4 5 5 5 5 5 6 6 6 6 7 7 7 8 7 7 7 6 7 7 7 6 6
12 11 13 12 11 10 9 9 10 10 10 9 9 7 6 6 6 6 6 5 4 5 6 7 6 6 6 7 7 8 8 7 8 8 8 7 7 7 7 8 8 8 7 7
13 13 14 14 13 12 11 11 11 11 11 11 10 9 7 7 7 7 8 7 7 7 7 7 7 7 7 7 8 8 8 8 8 9 8 8 8 8 8 8 8 8 7 8
14 15 15 15 15 14 13 14 14 13 13 12 11 11 8 8 8 8 8 8 8 8 8 9 9 8 8 8 9 9 10 10 10 10 9 8 9 8 8 9 8 8 8 9
15 16 16 16 15 15 15 15 16 15 14 13 12 12 10 11 10 10 10 10 9 8 9 10 10 10 9 9 10 10 10 11 11 10 9 9 9 9 9 9 9 9 9 10
15 16 16 16 16 16 15 16 17 16 16 15 14 14 12 12 12 11 10 10 11 10 10 10 11 11 10 10 11 11 11 12 12 11 10 10 10 10 10 11 11 11 11 11
15 15 15 16 16 17 17 17 17 18 18 18 17 16 15 14 13 12 12 12 12 12 12 11 11 11 11 11 12 12 12 12 12 12 12 11 11 12 12 12 12 12 12 13
17 17 16 17 17 18 18 18 19 19 21 21 20 18 17 15 15 15 14 13 13 13 13 13 12 13 13 13 13 13 13 13 13 13 13 13 13 13 13 13 13 13 14 14
19 19 18 19 19 19 19 20 20 21 22 22 21 19 17 16 16 16 16 15 14 14 14 14 14 15 15 15 15 15 15 15 15 15 15 15 15 15 15 15 15 15 15 16
20 20 20 20 20 20 21 22 22 22 22 22 21 20 18 18 18 18 17 15 15 16 16 15 15 16 16 16 16 15 15 15 16 16 16 16 16 16 17 17 17 17 17 17
22 23 22 22 22 22 23 23 23 23 23 23 22 21 19 19 19 18 17 16 17 17 17 16 16 17 17 16 17 17 17 17 17 17 18 18 17 17 17 17 17 18 18 18
23 24 24 23 23 23 24 24 24 24 24 24 23 22 20 20 19 18 17 17 18 17 17 17 17 17 17 16 17 17 18 18 18 19 19 18 18 18 18 18 18 19 19 20
26 26 25 25 25 25 25 25 25 25 24 24 23 23 22 20 19 18 18 18 18 18 18 18 18 17 17 17 18 18 19 19 19 19 19 19 19 20 20 19 19 20 20 21
28 28 28 27 27 27 26 26 26 25 25 25 25 25 24 23 22 21 20 20 20 19 19 19 19 18 18 19 19 20 20 20 19 19 19 20 20 20 20 21 21 21 21 21
31 31 31 30 29 28 27 25 25 25 25 26 26 25 26 26 25 24 23 22 21 21 21 21 20 20 20 21 21 21 21 20 20 20 20 20 20 20 21 22 22 22 22 22
31 32 32 31 30 31 27 26 27 28 28 28 27 27 27 27 26 26 25 24 23 23 23 22 22 22 22 22 22 21 21 21 21 21 21 21 21 21 22 23 23 23 23 23
32 32 33 33 33 32 31 29 28 29 29 29 29 29 29 28 28 27 26 26 24 23 24 23 23 23 23 23 22 22 22 22 22 22 22 23 24 23 24 24 24 24 24 24
33 33 34 34 34 34 32 31 31 31 31 30 30 30 30 30 29 28 27 27 26 24 25 25 24 24 25 24 23 24 24 24 23 24 24 25 25 25 25 25 25 25 25 25
33 34 34 34 34 34 33 32 32 32 32 30 30 29 29 29 29 29 29 28 27 26 26 26 26 26 26 26 26 25 25 25 25 26 26 26 27 26 26 26 26 26 25 25
33 34 34 34 34 33 32 33 33 32 32 31 30 29 28 28 28 28 29 29 29 28 28 28 28 28 28 28 28 27 26 27 28 28 28 27 27 27 27 26 26 26 25 25
34 34 34 34 33 32 31 32 31 32 31 30 29 29 28 28 29 29 29 29 28 29 28 28 29 29 30 30 30 29 28 28 29 29 28 28 28 28 28 27 27 27 26 25
34 34 35 35 34 33 32 31 31 32 31 30 30 29 29 29 30 29 29 29 29 30 30 29 29 30 30 30 30 30 30 30 30 30 30 29 28 27 27 27 27 27 26 26
34 35 34 34 33 32 32 32 32 32 31 31 31 30 30 30 30 30 30 30 30 31 31 31 30 30 30 30 30 30 30 29 29 30 30 30 29 27 27 27 27 27 27 27
33 33 32 32 32 33 32 32 32 32 32 32 32 31 31 31 31 31 31 31 31 31 31 31 30 30 30 30 30 30 29 29 30 30 29 30 29 28 27 27 27 28 27 27
Wind_Direction
221 219 219 221 226 236 223 227 257 278 281 302 320 340 339 345 357 1 5 5 12 352 338 351 2 5 4 -0 3 3 1 2 1 354 348 344 338 335 336 333 326 317 310 304
225 223 224 227 227 228 234 242 261 270 280 285 294 307 324 332 342 348 352 345 334 331 337 345 351 351 344 340 339 338 343 350 352 344 336 332 328 324 325 321 313 306 301 295
229 227 228 229 233 236 243 251 257 266 273 278 283 296 304 317 319 331 335 342 342 319 320 323 329 324 323 325 320 323 336 336 336 336 332 327 326 324 318 315 311 303 294 287
229 229 230 232 236 242 245 248 253 264 267 272 277 290 299 301 303 310 310 311 323 324 325 322 314 313 312 312 313 322 323 325 325 325 323 322 318 313 310 307 305 301 291 285
229 231 233 235 239 244 244 249 253 260 271 272 276 284 298 297 300 302 300 300 306 309 314 318 310 300 299 301 305 312 312 313 315 316 315 312 311 310 307 307 306 301 292 287
231 235 238 240 239 240 244 251 257 264 272 275 278 284 294 293 298 300 299 296 300 306 308 304 298 292 290 293 299 305 306 307 309 312 310 306 307 309 304 302 302 297 293 289
235 238 241 243 238 241 248 256 262 267 273 278 281 284 294 291 289 293 295 296 294 300 304 298 296 294 293 292 295 299 302 304 305 306 304 302 301 301 303 300 297 294 290 289
236 236 241 245 247 249 253 258 263 269 275 277 277 283 292 289 289 293 294 289 289 295 295 295 295 295 290 288 290 295 300 302 303 300 299 297 297 297 298 299 296 292 290 290
238 235 236 242 247 249 251 255 264 269 274 275 278 283 286 288 289 292 291 288 287 292 293 289 288 293 290 285 289 293 297 300 300 297 294 293 296 296 296 297 292 287 285 288
240 237 236 241 245 247 250 255 263 271 276 278 279 283 286 285 287 290 294 290 287 290 289 283 284 291 290 288 288 291 295 298 299 297 295 291 291 290 291 293 294 289 286 286
244 244 239 241 244 249 252 257 264 269 274 279 279 283 284 283 283 285 288 289 288 288 288 284 284 288 289 287 288 289 291 294 294 294 291 289 289 288 288 289 291 290 291 291
250 249 245 244 247 250 255 259 263 267 269 275 277 280 281 281 280 281 282 283 282 288 286 286 286 287 288 288 289 289 288 293 291 290 290 289 289 288 287 288 290 293 295 296
250 253 253 250 249 251 255 258 260 264 267 270 273 276 277 277 279 278 277 278 283 287 283 286 284 283 284 284 288 289 287 290 291 288 290 290 290 289 289 290 293 294 295 296
250 253 256 257 259 258 260 262 261 264 266 270 273 276 276 275 276 274 273 275 279 281 281 281 284 282 283 284 288 288 288 290 292 290 288 289 291 291 291 292 294 295 294 294
251 253 255 259 261 262 265 265 263 265 269 272 274 276 277 276 275 274 274 274 276 279 280 281 282 284 285 286 288 287 289 290 289 289 289 289 289 290 291 292 293 293 293 292
252 255 256 259 262 264 265 264 264 266 270 272 273 274 276 276 276 276 276 275 275 276 276 278 279 283 285 285 285 286 287 287 286 287 287 287 286 286 289 290 292 294 293 292
253 255 257 260 262 263 263 264 264 266 270 272 273 274 275 275 276 274 273 274 274 273 275 278 279 282 284 284 285 287 288 286 285 285 285 284 284 285 288 290 291 292 292 292
253 254 257 260 261 261 265 264 263 266 269 272 272 273 275 276 275 273 273 274 275 275 276 280 282 283 284 285 285 287 287 284 284 285 284 283 282 283 285 287 288 289 290 290
251 254 256 258 260 262 263 265 265 266 267 270 271 273 273 273 273 272 273 274 274 275 274 274 277 280 281 282 284 285 285 284 283 284 283 283 283 283 284 285 286 287 289 290
250 253 255 257 260 262 264 265 266 267 268 269 271 271 270 269 270 271 272 272 271 272 272 271 273 277 279 278 280 282 284 284 283 282 283 283 285 285 285 285 286 288 288 288
250 251 253 256 259 262 264 265 266 268 271 272 271 269 268 269 269 270 270 270 270 271 271 272 274 276 277 279 279 280 282 283 284 284 285 285 285 284 284 284 285 286 286 287
252 253 254 256 257 261 263 265 266 269 269 270 269 269 268 268 269 269 270 270 269 270 272 273 274 275 276 278 279 281 282 285 286 286 285 284 284 283 283 284 285 285 284 286
254 254 255 257 259 260 262 264 266 267 267 268 268 268 268 268 268 270 270 271 270 270 271 273 274 275 276 277 278 279 282 284 285 286 284 283 282 281 282 285 285 286 285 286
255 255 256 257 258 259 260 261 263 266 266 266 267 266 267 267 267 269 270 271 272 272 273 275 277 277 279 279 279 281 282 283 284 286 288 287 285 284 284 284 285 285 285 287
255 256 257 259 258 258 259 260 262 264 263 263 265 266 267 267 267 268 270 271 271 273 273 273 274 275 276 278 280 281 282 284 286 287 288 288 286 284 284 284 284 285 285 286
256 258 258 258 259 258 259 259 261 262 263 264 265 266 267 267 268 267 269 270 271 272 273 273 273 275 277 278 279 280 281 282 283 285 285 284 283 284 283 284 284 284 285 287
Height
5895 5897 5898 5898 5899 5900 5901 5902 5902 5902 5902 5901 5901 5901 5900 5899 5899 5898 5897 5896 5896 5895 5894 5892 5891 5890 5890 5889 5888 5887 5886 5885 5884 5883 5882 5882 5881 5880 5879 5878 5877 5877 5876 5876
5894 5896 5897 5897 5897 5898 5900 5901 5901 5901 5901 5901 5900 5900 5900 5899 5899 5898 5897 5896 5895 5894 5894 5892 5891 5891 5890 5889 5888 5887 5885 5884 5883 5882 5881 5880 5879 5878 5878 5877 5876 5875 5875 5874
5892 5895 5895 5896 5897 5898 5899 5900 5900 5900 5900 5899 5900 5900 5900 5899 5898 5897 5896 5895 5895 5894 5893 5892 5891 5890 5889 5888 5887 5886 5885 5883 5882 5881 5880 5879 5878 5877 5877 5876 5875 5874 5873 5873
5890 5892 5893 5894 5895 5896 5897 5898 5898 5898 5898 5898 5899 5898 5899 5898 5897 5896 5895 5895 5894 5893 5892 5891 5890 5889 5888 5887 5886 5885 5884 5883 5882 5881 5879 5878 5877 5876 5875 5874 5873 5872 5871 5871
5888 5889 5891 5892 5893 5894 5895 5895 5896 5896 5896 5897 5897 5896 5898 5897 5896 5895 5895 5894 5893 5892 5891 5890 5889 5888 5887 5886 5885 5884 5882 5881 5880 5879 5878 5877 5875 5874 5873 5872 5871 5870 5869 5869
5885 5887 5888 5890 5891 5892 5893 5893 5894 5894 5894 5895 5895 5895 5895 5895 5894 5894 5893 5892 5891 5890 5889 5888 5887 5885 5885 5884 5883 5882 5881 5880 5879 5877 5876 5875 5874 5872 5871 5870 5869 5868 5867 5866
5882 5884 5885 5887 5888 5889 5890 5892 5892 5891 5892 5892 5892 5892 5893 5892 5892 5892 5891 5891 5889 5888 5887 5886 5884 5883 5882 5882 5881 5880 5879 5878 5877 5875 5874 5873 5871 5870 5869 5867 5866 5865 5864 5864
5880 5882 5883 5884 5885 5886 5887 5888 5889 5889 5889 5889 5889 5889 5891 5890 5889 5889 5889 5888 5887 5886 5884 5883 5882 5881 5880 5879 5879 5878 5876 5875 5874 5873 5871 5870 5869 5867 5866 5864 5863 5862 5861 5860
5876 5879 5880 5881 5882 5883 5883 5884 5885 5885 5885 5885 5885 5886 5886 5886 5886 5886 5885 5885 5884 5883 5881 5880 5879 5878 5877 5876 5876 5875 5874 5872 5871 5870 5868 5867 5866 5864 5863 5861 5860 5859 5858 5857
5873 5875 5877 5877 5878 5879 5880 5880 5881 5881 5880 5880 5881 5881 5882 5882 5882 5882 5882 5881 5880 5879 5878 5877 5876 5875 5874 5873 5872 5872 5870 5869 5867 5866 5865 5864 5862 5861 5859 5858 5857 5855 5854 5853
5868 5870 5872 5873 5873 5874 5876 5876 5876 5876 5876 5876 5876 5879 5878 5878 5878 5878 5877 5877 5876 5875 5874 5874 5873 5871 5870 5869 5868 5867 5866 5865 5864 5863 5861 5860 5858 5857 5855 5854 5853 5852 5850 5849
5864 5865 5866 5868 5869 5870 5871 5871 5872 5872 5872 5871 5871 5875 5873 5873 5873 5873 5872 5872 5872 5871 5870 5869 5869 5867 5866 5865 5864 5863 5862 5861 5860 5859 5857 5855 5854 5853 5852 5850 5849 5848 5846 5845
5859 5860 5861 5863 5866 5866 5865 5866 5866 5867 5866 5866 5866 5870 5868 5868 5868 5868 5868 5867 5867 5866 5865 5864 5864 5863 5862 5861 5860 5859 5858 5857 5856 5854 5852 5851 5850 5849 5847 5846 5845 5843 5842 5840
5853 5854 5857 5859 5859 5860 5860 5861 5861 5861 5861 5861 5862 5863 5863 5863 5863 5863 5863 5862 5862 5861 5860 5860 5859 5858 5857 5856 5855 5854 5853 5852 5850 5849 5848 5846 5845 5844 5842 5841 5840 5838 5837 5835
5847 5848 5850 5851 5853 5853 5854 5855 5855 5855 5856 5856 5857 5857 5857 5857 5858 5858 5858 5857 5857 5856 5856 5855 5854 5854 5853 5852 5851 5849 5848 5846 5845 5844 5842 5841 5840 5838 5837 5836 5835 5833 5832 5830
5840 5842 5843 5844 5846 5846 5847 5848 5849 5849 5850 5850 5851 5851 5852 5852 5852 5852 5852 5852 5852 5851 5850 5849 5849 5848 5847 5846 5845 5844 5843 5841 5839 5838 5837 5836 5835 5833 5832 5831 5830 5828 5826 5824
5834 5835 5836 5837 5839 5839 5840 5842 5843 5843 5843 5844 5844 5846 5845 5846 5846 5846 5846 5846 5845 5845 5844 5843 5843 5842 5841 5840 5839 5838 5837 5835 5834 5832 5831 5830 5829 5828 5826 5825 5823 5822 5821 5819
5826 5827 5828 5830 5832 5832 5836 5835 5836 5836 5837 5837 5838 5838 5838 5839 5839 5838 5839 5839 5839 5839 5838 5837 5836 5836 5835 5834 5833 5831 5830 5829 5828 5827 5825 5824 5823 5821 5820 5819 5817 5816 5815 5813
5818 5819 5820 5822 5823 5824 5827 5828 5829 5829 5829 5830 5830 5831 5831 5831 5831 5832 5832 5832 5833 5832 5831 5831 5830 5829 5829 5828 5827 5825 5824 5822 5821 5820 5819 5817 5816 5815 5813 5812 5811 5809 5808 5807
5809 5811 5813 5813 5814 5816 5820 5820 5820 5822 5821 5823 5823 5823 5823 5823 5824 5825 5825 5825 5825 5825 5824 5824 5823 5822 5821 5820 5819 5818 5817 5815 5813 5812 5811 5810 5809 5807 5806 5805 5804 5802 5801 5800
5801 5802 5803 5804 5805 5807 5810 5811 5812 5814 5815 5815 5814 5814 5814 5815 5816 5817 5817 5817 5817 5817 5817 5816 5815 5814 5813 5813 5811 5810 5809 5807 5806 5804 5804 5803 5801 5800 5799 5797 5796 5795 5794 5792
5791 5793 5794 5796 5797 5801 5801 5802 5804 5804 5805 5805 5805 5806 5807 5807 5807 5808 5808 5809 5809 5808 5808 5808 5807 5807 5806 5805 5804 5802 5801 5800 5798 5797 5796 5795 5794 5793 5791 5790 5789 5788 5786 5785
5782 5784 5785 5788 5791 5791 5792 5793 5794 5795 5795 5796 5797 5798 5798 5799 5799 5800 5800 5800 5800 5800 5800 5799 5799 5799 5798 5797 5796 5794 5793 5792 5791 5789 5788 5787 5786 5785 5784 5782 5781 5780 5778 5777
5773 5774 5776 5778 5780 5782 5783 5783 5784 5785 5786 5787 5788 5789 5790 5790 5791 5791 5791 5792 5792 5791 5791 5791 5790 5790 5789 5789 5788 5786 5785 5784 5783 5782 5781 5779 5778 5776 5775 5774 5772 5772 5771 5769
5763 5765 5766 5768 5770 5772 5774 5775 5776 5776 5777 5778 5779 5780 5781 5781 5782 5783 5783 5783 5783 5783 5783 5783 5782 5782 5781 5780 5779 5778 5777 5775 5774 5773 5773 5771 5770 5768 5767 5766 5765 5764 5763 5761
5754 5756 5758 5759 5761 5763 5765 5766 5767 5768 5769 5770 5771 5771 5772 5772 5773 5773 5773 5774 5774 5774 5774 5773 5773 5772 5772 5771 5770 5769 5768 5767 5766 5765 5764 5763 5762 5760 5759 5758 5757 5755 5754 5753